period_start,C,m1,H,J0,J1,J2,J3,J4,J5,JA,JB,JC,JD,JJ,JK,JN,#
2014-09-27 00:03:20,0.00,0.15,0.00,19.03,25.02,28.36,9.70,39.17,1006.77,2046.99,3456.02,3305.98,3568.99,499.71,498.29,34.53,0000 0000 0000 0000 000000
2014-09-27 00:08:21,0.00,0.15,0.00,19.12,25.02,28.32,9.72,39.21,1006.78,2046.99,3456.01,3305.97,3568.98,500.04,498.51,34.57,0000 0000 0000 0000 000000
2014-09-27 00:13:22,0.00,0.15,0.00,19.29,25.04,28.23,9.63,39.11,1006.81,2046.99,3456.00,3305.92,3568.86,499.66,497.79,34.61,0000 0000 0000 0000 000000
2014-09-27 00:18:24,0.01,0.15,0.00,19.44,25.05,28.19,9.62,39.87,1006.83,2046.99,3455.97,3305.87,3568.56,500.20,497.97,34.66,0000 0000 0000 0000 000000
2014-09-27 00:23:25,0.11,0.15,0.00,19.45,25.06,28.19,9.74,40.34,1006.84,2046.99,3454.64,3304.94,3567.47,499.99,497.84,34.70,0000 0000 0000 0000 000000
2014-09-27 00:28:26,0.05,0.15,0.00,19.55,25.08,28.21,9.72,40.29,1006.83,2046.99,3452.36,3303.84,3566.08,500.24,497.88,34.74,0000 0000 0000 0000 000000
2014-09-27 00:33:27,0.02,0.16,0.00,19.49,25.10,28.23,9.66,40.26,1006.84,2046.99,3452.09,3303.40,3566.00,500.09,497.91,34.78,0000 0000 0000 0000 000000
2014-09-27 00:38:28,0.00,0.16,0.00,19.59,25.13,28.25,9.63,40.41,1006.84,2046.99,3452.00,3303.06,3565.97,499.77,497.44,34.82,0000 0000 0000 0000 000000
2014-09-27 00:43:29,0.01,0.16,0.00,19.79,25.16,28.27,9.70,40.25,1006.85,2046.98,3451.98,3303.00,3565.33,499.89,497.21,34.86,0000 0000 0000 0000 000000
2014-09-27 00:48:30,0.01,0.16,0.00,19.86,25.19,28.32,9.55,39.98,1006.85,2046.97,3451.68,3302.98,3565.06,499.88,497.09,34.91,0000 0000 0000 0000 000000
2014-09-27 00:53:32,0.00,0.16,0.00,19.84,25.22,28.35,9.66,39.94,1006.85,2046.93,3451.18,3302.84,3565.00,499.99,497.18,34.95,0000 0000 0000 0000 000000
2014-09-27 00:58:33,-0.03,0.16,0.00,19.94,25.26,28.35,9.75,39.92,1006.85,2046.42,3451.00,3302.15,3564.68,499.77,496.95,34.99,0000 0000 0000 0000 000000
2014-09-27 01:03:34,-0.02,0.15,0.00,20.02,25.30,28.39,9.68,39.66,1006.85,2046.07,3450.93,3302.01,3564.03,500.30,497.40,35.03,0000 0000 0000 0000 000000
2014-09-27 01:08:36,0.01,0.16,0.00,20.00,25.34,28.45,9.57,39.48,1006.85,2046.01,3450.33,3301.99,3563.99,499.77,496.74,35.07,0000 0000 0000 0000 000000
2014-09-27 01:13:37,0.01,0.16,0.00,20.06,25.38,28.49,9.66,39.92,1006.85,2046.00,3450.00,3301.85,3563.77,499.88,496.71,35.11,0000 0000 0000 0000 000000
2014-09-27 01:18:38,0.03,0.16,0.00,20.06,25.42,28.55,9.62,39.56,1006.85,2046.00,3449.82,3301.17,3563.10,500.19,497.05,35.16,0000 0000 0000 0000 000000
2014-09-27 01:23:39,0.01,0.16,0.00,20.17,25.46,28.57,9.60,39.48,1006.86,2045.97,3449.17,3301.00,3562.98,500.22,496.99,35.20,0000 0000 0000 0000 000000
2014-09-27 01:28:40,-0.01,0.16,0.00,20.26,25.51,28.63,9.64,39.56,1006.86,2045.82,3449.01,3300.76,3562.23,500.29,496.82,35.24,0000 0000 0000 0000 000000
2014-09-27 01:33:42,-0.01,0.16,0.00,20.24,25.55,28.67,9.61,39.58,1006.85,2045.38,3448.80,3300.16,3562.00,499.95,496.48,35.28,0000 0000 0000 0000 000000
2014-09-27 01:38:43,-0.00,0.16,0.00,20.34,25.59,28.71,9.63,39.66,1006.86,2045.04,3448.08,3299.98,3561.42,499.47,495.95,35.32,0000 0000 0000 0000 000000
2014-09-27 01:43:44,0.03,0.16,0.00,20.39,25.64,28.75,9.64,39.43,1006.87,2045.01,3447.84,3299.44,3560.94,500.13,496.41,35.36,0000 0000 0000 0000 000000
2014-09-27 01:48:45,0.03,0.16,0.00,20.35,25.69,28.80,9.70,39.56,1007.02,2044.99,3447.06,3298.99,3560.17,500.20,496.60,35.40,0000 0000 0000 0000 000000
2014-09-27 01:53:46,0.02,0.16,0.00,20.48,25.73,28.85,9.59,39.51,1007.10,2044.96,3446.77,3298.56,3559.91,499.60,496.03,35.45,0000 0000 0000 0000 000000
2014-09-27 01:58:47,0.00,0.16,0.00,20.50,25.78,28.88,9.60,39.37,1007.13,2044.70,3446.03,3298.01,3559.13,499.99,496.32,35.49,0000 0000 0000 0000 000000
2014-09-27 02:03:48,-0.03,0.16,0.00,20.59,25.83,28.92,9.69,39.45,1007.21,2044.14,3445.78,3297.64,3558.73,500.10,496.21,35.53,0000 0000 0000 0000 000000
2014-09-27 02:08:49,0.02,0.16,0.00,20.69,25.88,28.97,9.57,39.33,1007.29,2044.02,3445.11,3297.03,3558.06,499.63,495.69,35.57,0000 0000 0000 0000 000000
2014-09-27 02:13:50,0.00,0.16,0.00,20.72,25.93,29.02,9.63,39.41,1007.27,2044.00,3445.00,3296.98,3557.95,500.04,496.02,35.61,0000 0000 0000 0000 000000
2014-09-27 02:18:52,0.03,0.16,0.00,20.85,25.98,29.06,9.61,39.33,1007.22,2043.99,3444.96,3296.51,3557.25,500.04,495.87,35.65,0000 0000 0000 0000 000000
2014-09-27 02:23:53,0.01,0.16,0.00,20.73,26.02,29.12,9.66,39.38,1007.25,2043.91,3444.34,3296.04,3557.00,499.72,495.58,35.70,0000 0000 0000 0000 000000
2014-09-27 02:28:54,-0.05,0.16,0.00,20.85,26.07,29.17,9.56,39.43,1007.19,2043.42,3444.01,3295.96,3556.71,500.00,495.62,35.74,0000 0000 0000 0000 000000
2014-09-27 02:33:55,0.02,0.16,0.00,20.84,26.12,29.22,9.63,39.39,1007.17,2043.03,3443.85,3295.33,3556.02,500.10,495.80,35.78,0000 0000 0000 0000 000000
2014-09-27 02:38:57,0.01,0.16,0.00,20.88,26.17,29.26,9.58,39.33,1007.12,2043.00,3443.15,3295.01,3555.85,499.93,495.53,35.82,0000 0000 0000 0000 000000
2014-09-27 02:43:58,0.03,0.16,0.00,20.89,26.22,29.31,9.60,39.38,1007.20,2042.97,3442.99,3294.44,3555.09,499.83,495.26,35.86,0000 0000 0000 0000 000000
2014-09-27 02:48:59,-0.06,0.16,0.00,20.96,26.27,29.36,9.54,39.27,1007.19,2042.57,3442.73,3294.01,3554.91,499.57,495.03,35.90,0000 0000 0000 0000 000000
2014-09-27 02:54:00,0.01,0.16,0.00,20.95,26.32,29.42,9.59,39.48,1007.28,2042.09,3442.10,3293.88,3554.19,500.25,495.80,35.95,0000 0000 0000 0000 000000
2014-09-27 02:59:01,0.02,0.16,0.00,21.00,26.36,29.46,9.60,39.20,1007.30,2042.00,3441.97,3293.15,3553.99,500.19,495.60,35.99,0000 0000 0000 0000 000000
2014-09-27 03:04:02,0.03,0.16,0.00,20.96,26.41,29.50,9.58,39.26,1007.32,2042.00,3441.34,3293.00,3553.41,499.83,495.31,36.03,0000 0000 0000 0000 000000
2014-09-27 03:09:03,0.02,0.16,0.00,21.18,26.45,29.52,9.64,39.33,1007.31,2041.98,3441.01,3292.44,3553.00,499.76,494.96,36.07,0000 0000 0000 0000 000000
2014-09-27 03:14:05,-0.00,0.16,0.00,21.68,26.50,29.53,9.55,38.98,1007.34,2041.85,3440.94,3292.01,3552.60,500.05,494.35,36.11,0000 0000 0000 0000 000000
2014-09-27 03:19:06,-0.05,0.16,0.00,21.83,26.55,29.56,9.53,39.00,1007.34,2041.26,3440.33,3291.91,3552.03,500.07,494.24,36.15,0000 0000 0000 0000 000000
2014-09-27 03:24:07,0.01,0.16,0.00,21.41,26.58,29.61,9.64,39.02,1007.34,2041.02,3440.02,3291.21,3551.99,500.08,494.76,36.19,0000 0000 0000 0000 000000
2014-09-27 03:29:08,0.01,0.16,0.00,20.73,26.63,29.78,9.63,39.39,1007.34,2041.00,3440.00,3291.01,3551.61,500.26,496.18,36.24,0000 0000 0000 0000 000000
2014-09-27 03:34:09,0.01,0.16,0.00,20.45,26.66,30.02,9.68,39.48,1007.35,2040.99,3439.65,3290.95,3551.02,500.20,496.86,36.28,0000 0000 0000 0000 000000
2014-09-27 03:39:10,0.02,0.16,0.00,20.43,26.69,30.11,9.63,39.27,1007.34,2040.94,3439.04,3290.36,3550.90,500.08,496.62,36.32,0000 0000 0000 0000 000000
2014-09-27 03:44:12,-0.01,0.16,0.00,20.17,26.71,30.07,9.73,39.45,1007.35,2040.78,3439.00,3290.04,3550.45,500.02,497.01,36.36,0000 0000 0000 0000 000000
2014-09-27 03:49:13,-0.04,0.16,0.00,20.14,26.72,29.98,9.70,39.27,1007.35,2040.37,3438.84,3290.00,3550.05,499.77,496.78,36.40,0000 0000 0000 0000 000000
2014-09-27 03:54:14,-0.01,0.16,0.00,20.23,26.75,29.94,9.70,39.37,1007.34,2040.12,3438.45,3290.00,3550.00,500.14,497.06,36.44,0000 0000 0000 0000 000000
2014-09-27 03:59:16,0.00,0.16,0.00,20.22,26.75,29.92,9.73,39.29,1007.34,2040.04,3438.06,3289.91,3549.96,500.31,497.20,36.49,0000 0000 0000 0000 000000
2014-09-27 04:04:17,0.02,0.16,0.00,20.18,26.75,29.87,9.74,39.29,1007.34,2040.01,3438.00,3289.56,3549.65,500.20,497.07,36.53,0000 0000 0000 0000 000000
2014-09-27 04:09:18,0.02,0.16,0.00,20.16,26.75,29.90,9.61,39.35,1007.34,2040.01,3437.94,3289.06,3549.06,499.81,496.78,36.57,0000 0000 0000 0000 000000
2014-09-27 04:14:19,0.01,0.16,0.00,20.09,26.75,29.89,9.69,39.18,1007.35,2040.03,3437.69,3289.01,3549.00,500.32,497.48,36.61,0000 0000 0000 0000 000000
2014-09-27 04:19:20,0.00,0.16,0.00,20.07,26.75,29.84,9.73,39.32,1007.34,2040.00,3437.16,3289.00,3548.99,499.98,497.00,36.65,0000 0000 0000 0000 000000
2014-09-27 04:24:22,-0.00,0.16,0.00,20.08,26.75,29.82,9.65,39.29,1007.34,2040.01,3437.13,3288.99,3548.98,499.53,496.80,36.70,0000 0000 0000 0000 000000
2014-09-27 04:29:22,0.00,0.16,0.00,20.08,26.74,29.79,9.76,39.30,1007.34,2040.01,3437.08,3288.99,3548.95,500.31,497.40,36.74,0000 0000 0000 0000 000000
2014-09-27 04:34:24,0.00,0.17,0.00,19.97,26.72,29.74,9.69,39.14,1007.36,2040.00,3437.01,3288.97,3548.76,500.06,497.44,36.78,0000 0000 0000 0000 000000
2014-09-27 04:39:25,0.01,0.17,0.00,19.87,26.72,29.51,9.67,39.40,1007.35,2040.00,3437.00,3288.95,3548.19,499.72,497.07,36.82,0000 0000 0000 0000 000000
2014-09-27 04:44:26,0.00,0.17,0.00,19.95,26.70,29.30,9.71,39.38,1007.36,2040.01,3437.00,3288.96,3548.14,500.49,497.82,36.86,0000 0000 0000 0000 000000
2014-09-27 04:49:27,0.00,0.17,0.00,19.86,26.70,29.24,9.69,39.27,1007.34,2040.01,3437.00,3288.96,3548.12,500.23,497.80,36.90,0000 0000 0000 0000 000000
2014-09-27 04:54:28,0.00,0.17,0.00,19.74,26.67,29.19,9.72,39.35,1007.35,2040.02,3436.99,3288.95,3548.07,500.16,497.78,36.95,0000 0000 0000 0000 000000
2014-09-27 04:59:30,0.01,0.17,0.00,19.77,26.66,29.13,9.72,39.32,1007.34,2040.04,3436.99,3288.98,3548.07,500.17,497.81,36.99,0000 0000 0000 0000 000000
2014-09-27 05:04:31,-0.00,0.17,0.00,19.80,26.64,29.13,9.71,39.38,1007.35,2040.09,3436.99,3288.97,3548.08,499.86,497.60,37.03,0000 0000 0000 0000 000000
2014-09-27 05:09:32,0.02,0.17,0.00,19.84,26.62,29.24,9.70,39.37,1007.35,2040.26,3437.00,3288.99,3548.27,500.01,497.50,37.07,0000 0000 0000 0000 000000
2014-09-27 05:14:34,0.02,0.17,0.00,19.75,26.60,29.39,9.68,39.22,1007.36,2040.52,3437.00,3288.99,3548.49,499.76,497.52,37.11,0000 0000 0000 0000 000000
2014-09-27 05:19:35,0.04,0.17,0.00,19.78,26.57,29.26,9.68,39.29,1007.44,2040.88,3437.00,3288.99,3548.54,499.81,497.61,37.15,0000 0000 0000 0000 000000
2014-09-27 05:24:36,-0.00,0.17,0.00,19.78,26.56,29.27,9.79,39.19,1007.58,2040.94,3437.00,3288.99,3548.63,500.51,498.13,37.20,0000 0000 0000 0000 000000
2014-09-27 05:29:38,-0.00,0.17,0.00,19.80,26.55,29.43,9.67,39.26,1007.41,2040.98,3437.01,3289.02,3548.92,499.82,497.41,37.24,0000 0000 0000 0000 000000
2014-09-27 05:34:39,0.00,0.17,0.00,19.76,26.52,29.19,9.69,39.43,1007.45,2040.98,3437.01,3289.04,3548.96,500.39,498.02,37.28,0000 0000 0000 0000 000000
2014-09-27 05:39:40,-0.00,0.17,0.00,19.76,26.50,29.10,9.65,39.17,1007.66,2040.99,3437.00,3289.11,3548.97,499.46,497.29,37.32,0000 0000 0000 0000 000000
2014-09-27 05:44:41,-0.00,0.17,0.00,19.71,26.48,29.23,9.67,39.40,1007.66,2040.99,3437.01,3289.24,3548.98,500.06,497.92,37.36,0000 0000 0000 0000 000000
2014-09-27 05:49:43,-0.00,0.17,0.00,19.65,26.46,29.24,9.71,39.24,1007.69,2040.99,3437.01,3289.33,3548.98,499.65,497.54,37.40,0000 0000 0000 0000 000000
2014-09-27 05:54:44,-0.00,0.17,0.00,19.64,26.45,29.34,9.65,39.36,1007.69,2040.99,3437.03,3289.38,3548.98,500.14,498.20,37.45,0000 0000 0000 0000 000000
2014-09-27 05:59:45,-0.01,0.17,0.00,19.61,26.42,29.36,9.69,39.23,1007.82,2041.01,3437.01,3289.47,3548.95,499.96,497.98,37.49,0000 0000 0000 0000 000000
2014-09-27 06:04:47,-0.00,0.17,0.00,19.66,26.41,29.30,9.70,39.17,1007.77,2041.06,3437.05,3289.85,3548.98,500.05,498.05,37.53,0000 0000 0000 0000 000000
2014-09-27 06:09:48,0.01,0.17,0.00,19.77,26.39,29.28,9.66,39.12,1007.72,2041.13,3437.02,3289.83,3548.97,500.00,497.73,37.57,0000 0000 0000 0000 000000
2014-09-27 06:14:49,0.04,0.17,0.00,19.73,26.37,29.39,9.71,39.14,1007.62,2041.50,3437.01,3289.91,3548.97,500.01,497.63,37.61,0000 0000 0000 0000 000000
2014-09-27 06:19:51,0.01,0.17,0.00,19.69,26.36,29.35,9.65,39.23,1007.67,2041.67,3437.00,3289.83,3548.94,500.09,497.92,37.65,0000 0000 0000 0000 000000
2014-09-27 06:24:52,0.01,0.17,0.00,19.60,26.35,29.42,9.70,39.14,1007.81,2041.88,3437.00,3289.89,3548.93,499.96,498.23,37.70,0000 0000 0000 0000 000000
2014-09-27 06:29:53,0.00,0.17,0.00,19.62,26.33,29.47,9.66,39.00,1007.80,2041.94,3437.00,3289.94,3548.94,500.08,498.13,37.74,0000 0000 0000 0000 000000
2014-09-27 06:34:54,0.01,0.17,0.00,19.60,26.32,29.47,9.70,39.23,1007.80,2041.98,3437.00,3289.89,3548.78,500.00,498.12,37.78,0000 0000 0000 0000 000000
2014-09-27 06:39:56,0.01,0.17,0.00,19.66,26.32,29.49,9.65,39.41,1007.83,2041.98,3437.00,3289.65,3548.38,499.61,497.56,37.82,0000 0000 0000 0000 000000
2014-09-27 06:44:57,0.02,0.17,0.00,19.61,26.30,29.49,9.72,39.62,1007.83,2041.98,3436.99,3289.14,3548.05,499.60,497.68,37.86,0000 0000 0000 0000 000000
2014-09-27 06:49:58,0.00,0.17,0.00,19.51,26.30,29.47,9.62,39.67,1007.83,2041.99,3436.98,3289.06,3548.00,499.60,497.95,37.90,0000 0000 0000 0000 000000
2014-09-27 06:55:00,0.00,0.17,0.00,19.50,26.28,29.49,9.74,39.72,1007.80,2041.99,3436.98,3289.03,3548.00,500.00,498.40,37.95,0000 0000 0000 0000 000000
2014-09-27 07:00:01,0.00,0.17,0.00,19.59,26.27,29.36,9.79,39.51,1007.80,2041.99,3436.80,3289.00,3547.98,500.94,499.09,37.99,0000 0000 0000 0000 000000
2014-09-27 07:05:02,0.00,0.18,0.00,19.49,26.27,29.35,9.74,39.53,1007.83,2041.99,3436.44,3289.00,3547.97,500.21,498.35,38.03,0000 0000 0000 0000 000000
2014-09-27 07:10:03,0.01,0.18,0.00,19.53,26.25,29.29,9.70,39.44,1007.83,2041.99,3436.12,3289.00,3547.89,500.12,498.24,38.07,0000 0000 0000 0000 000000
2014-09-27 07:15:05,0.01,0.18,0.00,19.61,26.25,29.37,9.66,39.36,1007.83,2042.00,3436.01,3288.98,3547.30,499.63,497.71,38.11,0000 0000 0000 0000 000000
2014-09-27 07:20:06,0.00,0.18,0.00,19.54,26.23,29.38,9.76,39.45,1007.83,2042.00,3436.00,3288.97,3547.03,500.01,498.22,38.15,0000 0000 0000 0000 000000
2014-09-27 07:25:07,0.00,0.18,0.00,19.56,26.22,29.41,9.77,39.31,1007.83,2042.01,3436.00,3288.85,3547.00,500.32,498.50,38.20,0000 0000 0000 0000 000000
2014-09-27 07:30:08,0.00,0.18,0.00,19.60,26.21,29.39,9.75,39.52,1007.83,2042.04,3436.00,3288.78,3547.00,500.01,498.20,38.24,0000 0000 0000 0000 000000
2014-09-27 07:35:10,0.01,0.18,0.00,19.55,26.20,29.36,9.70,39.54,1007.83,2042.06,3435.98,3288.39,3546.99,499.90,497.98,38.28,0000 0000 0000 0000 000000
2014-09-27 07:40:11,0.01,0.18,0.00,19.52,26.20,29.40,9.77,39.66,1007.83,2042.05,3435.75,3288.05,3546.83,500.17,498.52,38.32,0000 0000 0000 0000 000000
2014-09-27 07:45:12,0.02,0.18,0.00,19.45,26.18,29.41,9.68,39.61,1007.83,2042.09,3435.21,3288.00,3546.35,499.73,498.15,38.36,0000 0000 0000 0000 000000
2014-09-27 07:50:14,0.01,0.18,0.00,19.47,26.17,29.41,9.65,39.63,1007.84,2042.24,3435.34,3288.01,3546.27,499.71,498.20,38.40,0000 0000 0000 0000 000000
2014-09-27 07:55:14,0.01,0.18,0.00,19.60,26.16,29.41,9.69,39.39,1007.84,2042.41,3435.40,3288.02,3546.23,500.29,498.31,38.45,0000 0000 0000 0000 000000
2014-09-27 08:00:15,0.03,0.18,0.00,19.51,26.15,29.41,9.76,39.31,1007.88,2042.81,3435.71,3288.05,3546.41,499.97,498.27,38.49,0000 0000 0000 0000 000000
2014-09-27 08:05:17,-0.00,0.18,0.00,19.55,26.15,29.43,9.69,39.25,1007.90,2042.80,3435.58,3288.08,3546.45,500.06,498.34,38.53,0000 0000 0000 0000 000000
2014-09-27 08:10:18,0.02,0.18,0.00,19.60,26.14,29.49,9.71,39.33,1007.91,2042.87,3435.42,3288.06,3546.29,499.83,498.04,38.57,0000 0000 0000 0000 000000
2014-09-27 08:15:19,0.00,0.18,0.00,19.65,26.12,29.46,9.76,39.43,1007.99,2042.90,3435.14,3288.07,3546.14,500.28,498.38,38.61,0000 0000 0000 0000 000000
2014-09-27 08:20:20,0.00,0.18,0.00,19.53,26.12,29.45,9.74,39.50,1008.07,2042.97,3435.15,3288.18,3546.23,499.74,498.21,38.65,0000 0000 0000 0000 000000
2014-09-27 08:25:21,0.00,0.18,0.00,19.53,26.12,29.44,9.71,39.48,1008.23,2042.96,3435.03,3288.10,3546.04,500.18,498.65,38.70,0000 0000 0000 0000 000000
2014-09-27 08:30:23,0.00,0.18,0.00,19.44,26.11,29.43,9.69,39.39,1008.30,2042.95,3435.00,3288.06,3546.02,499.76,498.71,38.74,0000 0000 0000 0000 000000
2014-09-27 08:35:23,0.00,0.18,0.00,19.42,26.10,29.44,9.76,39.54,1008.31,2042.98,3435.00,3288.02,3546.00,499.93,498.83,38.78,0000 0000 0000 0000 000000
2014-09-27 08:40:25,0.00,0.18,0.00,19.40,26.10,29.49,9.72,39.16,1008.31,2042.97,3434.98,3288.02,3546.00,500.35,499.08,38.82,0000 0000 0000 0000 000000
2014-09-27 08:45:26,-0.00,0.18,0.00,19.50,26.09,29.46,9.69,39.42,1008.31,2042.98,3434.99,3288.13,3546.00,499.85,498.47,38.86,0000 0000 0000 0000 000000
2014-09-27 08:50:26,0.00,0.18,0.00,19.50,26.07,29.44,9.77,39.36,1008.31,2042.99,3434.99,3288.20,3546.00,500.18,498.62,38.90,0000 0000 0000 0000 000000
2014-09-27 08:55:28,0.00,0.18,0.00,19.38,26.07,29.46,9.70,39.42,1008.31,2042.99,3434.91,3288.14,3546.00,500.03,498.70,38.95,0000 0000 0000 0000 000000
2014-09-27 09:00:29,0.01,0.18,0.00,19.22,26.06,29.39,9.71,39.43,1008.31,2042.99,3434.54,3288.07,3545.99,499.78,498.75,38.99,0000 0000 0000 0000 000000
2014-09-27 09:05:30,0.01,0.18,0.00,19.26,26.05,29.32,9.75,39.51,1008.30,2042.99,3434.05,3288.03,3545.93,500.01,499.03,39.03,0000 0000 0000 0000 000000
2014-09-27 09:10:31,0.01,0.18,0.00,19.24,26.04,29.32,9.77,39.40,1008.25,2042.99,3434.01,3288.01,3545.62,500.20,499.25,39.07,0000 0000 0000 0000 000000
2014-09-27 09:15:32,0.00,0.19,0.00,19.25,26.02,29.24,9.79,39.52,1008.27,2042.99,3434.00,3288.00,3545.05,500.28,499.05,39.11,0000 0000 0000 0000 000000
2014-09-27 09:20:33,0.00,0.19,0.00,19.19,26.01,29.24,9.76,39.58,1008.28,2043.00,3433.91,3287.99,3544.99,499.70,498.79,39.15,0000 0000 0000 0000 000000
2014-09-27 09:25:34,0.00,0.19,0.00,19.20,26.00,29.20,9.66,39.48,1008.19,2043.01,3433.83,3287.98,3544.99,499.98,498.98,39.19,0000 0000 0000 0000 000000
2014-09-27 09:30:35,0.01,0.19,0.00,19.12,25.99,29.20,9.77,39.45,1008.16,2043.02,3433.66,3287.98,3544.98,500.22,499.21,39.24,0000 0000 0000 0000 000000
2014-09-27 09:35:36,0.00,0.19,0.00,19.12,25.97,29.18,9.71,39.30,1008.14,2043.02,3433.32,3287.97,3544.95,499.98,499.14,39.28,0000 0000 0000 0000 000000
2014-09-27 09:40:37,-0.00,0.19,0.00,19.12,25.96,29.15,9.83,39.27,1008.15,2043.05,3433.39,3287.98,3544.90,500.29,499.31,39.32,0000 0000 0000 0000 000000
2014-09-27 09:45:38,0.00,0.19,0.00,19.04,25.95,29.10,9.79,39.43,1008.23,2043.12,3433.55,3287.99,3544.97,499.89,499.16,39.36,0000 0000 0000 0000 000000
2014-09-27 09:50:39,0.02,0.19,0.00,18.96,25.92,29.06,9.76,39.49,1008.23,2043.18,3433.14,3287.98,3544.75,499.81,498.94,39.40,0000 0000 0000 0000 000000
2014-09-27 09:55:41,0.04,0.19,0.00,19.06,25.91,29.01,9.74,39.42,1008.22,2043.51,3433.01,3287.98,3544.32,500.13,499.19,39.44,0000 0000 0000 0000 000000
2014-09-27 10:00:42,0.02,0.19,0.00,19.02,25.90,28.97,9.69,39.51,1008.21,2043.71,3433.00,3287.93,3544.03,500.07,499.50,39.49,0000 0000 0000 0000 000000
2014-09-27 10:05:43,0.02,0.19,0.00,19.00,25.87,28.91,9.77,39.44,1008.26,2043.90,3432.99,3287.91,3544.01,499.97,499.51,39.53,0000 0000 0000 0000 000000
2014-09-27 10:10:45,0.00,0.19,0.00,19.02,25.85,28.88,9.71,39.41,1008.30,2043.97,3432.96,3287.95,3544.00,500.04,499.39,39.57,0000 0000 0000 0000 000000
2014-09-27 10:15:46,0.01,0.19,0.00,18.95,25.83,28.85,9.71,39.40,1008.31,2043.98,3432.67,3287.80,3543.99,500.27,499.77,39.61,0000 0000 0000 0000 000000
2014-09-27 10:20:47,0.01,0.19,0.00,18.92,25.82,28.81,9.82,39.44,1008.27,2043.98,3432.78,3287.78,3543.98,500.14,499.71,39.65,0000 0000 0000 0000 000000
2014-09-27 10:25:49,-0.01,0.19,0.00,18.95,25.80,28.77,9.71,39.38,1008.18,2043.99,3432.69,3287.85,3543.99,499.67,499.20,39.69,0000 0000 0000 0000 000000
2014-09-27 10:30:50,-0.00,0.19,0.00,18.93,25.77,28.76,9.73,39.34,1008.04,2043.99,3432.95,3287.98,3543.99,499.78,499.09,39.74,0000 0000 0000 0000 000000
2014-09-27 10:35:51,0.00,0.19,0.00,18.91,25.75,28.73,9.80,39.43,1008.12,2043.99,3432.93,3287.99,3543.99,500.26,499.52,39.78,0000 0000 0000 0000 000000
2014-09-27 10:40:52,0.01,0.19,0.00,18.85,25.73,28.80,9.68,39.36,1008.22,2044.00,3432.51,3287.98,3543.99,499.78,499.39,39.82,0000 0000 0000 0000 000000
2014-09-27 10:45:53,0.01,0.19,0.00,18.75,25.71,28.82,9.81,39.58,1008.27,2044.02,3432.15,3287.98,3543.97,500.40,500.21,39.86,0000 0000 0000 0000 000000
2014-09-27 10:50:55,-0.00,0.19,0.00,18.85,25.70,28.74,9.73,39.55,1008.30,2044.03,3432.36,3287.99,3543.98,499.78,499.41,39.90,0000 0000 0000 0000 000000
2014-09-27 10:55:56,0.01,0.19,0.00,18.80,25.67,28.74,9.73,39.42,1008.29,2044.06,3432.30,3287.99,3543.99,500.03,499.80,39.94,0000 0000 0000 0000 000000
2014-09-27 11:00:57,0.02,0.19,0.00,18.81,25.66,28.70,9.76,39.53,1008.14,2044.29,3432.80,3288.00,3543.99,500.05,499.73,39.98,0000 0000 0000 0000 000000
2014-09-27 11:05:58,0.05,0.19,0.00,18.79,25.64,28.71,9.71,39.48,1008.18,2044.69,3432.40,3288.00,3543.99,499.55,499.43,40.03,0000 0000 0000 0000 000000
2014-09-27 11:11:00,0.01,0.20,0.00,18.79,25.62,28.71,9.73,39.54,1008.14,2044.84,3432.35,3288.01,3543.99,499.70,499.27,40.07,0000 0000 0000 0000 000000
2014-09-27 11:16:01,0.00,0.20,0.00,18.81,25.60,28.71,9.76,39.48,1008.10,2044.91,3432.55,3288.01,3543.99,500.17,499.73,40.11,0000 0000 0000 0000 000000
2014-09-27 11:21:02,0.00,0.20,0.00,18.79,25.59,28.64,9.70,39.35,1008.01,2044.95,3432.51,3288.04,3543.99,499.87,499.53,40.15,0000 0000 0000 0000 000000
2014-09-27 11:26:04,0.01,0.20,0.00,18.77,25.57,28.66,9.72,39.61,1008.02,2044.97,3432.12,3288.05,3543.99,499.54,499.26,40.19,0000 0000 0000 0000 000000
2014-09-27 11:31:05,-0.00,0.20,0.00,18.83,25.56,28.67,9.79,39.39,1008.22,2044.99,3432.02,3288.07,3543.99,500.18,499.87,40.23,0000 0000 0000 0000 000000
2014-09-27 11:36:06,-0.00,0.20,0.00,18.78,25.55,28.66,9.72,39.49,1008.28,2044.99,3432.00,3288.14,3543.99,499.73,499.43,40.28,0000 0000 0000 0000 000000
2014-09-27 11:41:07,0.00,0.20,0.00,18.73,25.52,28.69,9.76,39.46,1008.21,2044.99,3432.00,3288.13,3543.98,500.34,500.12,40.32,0000 0000 0000 0000 000000
2014-09-27 11:46:08,-0.01,0.20,0.00,18.70,25.51,28.65,9.72,39.58,1008.15,2044.99,3432.00,3288.23,3543.96,499.53,499.37,40.36,0000 0000 0000 0000 000000
2014-09-27 11:51:09,-0.01,0.20,0.00,18.72,25.50,28.62,9.83,39.48,1008.08,2045.01,3432.00,3288.65,3543.99,500.43,500.16,40.40,0000 0000 0000 0000 000000
2014-09-27 11:56:11,0.00,0.20,0.00,18.60,25.48,28.58,9.72,39.58,1008.05,2045.01,3432.00,3288.62,3543.98,499.89,500.04,40.44,0000 0000 0000 0000 000000
2014-09-27 12:01:12,-0.00,0.20,0.00,18.62,25.47,28.55,9.77,39.42,1007.89,2045.03,3432.01,3288.88,3543.99,499.56,499.39,40.48,0000 0000 0000 0000 000000
2014-09-27 12:06:13,0.02,0.20,0.00,18.60,25.45,28.54,9.81,39.67,1007.89,2045.17,3432.00,3288.97,3543.99,500.12,499.87,40.53,0000 0000 0000 0000 000000
2014-09-27 12:11:14,0.04,0.20,0.00,18.63,25.43,28.53,9.76,39.43,1007.93,2045.51,3432.00,3288.99,3543.98,500.15,500.01,40.57,0000 0000 0000 0000 000000
2014-09-27 12:16:15,0.03,0.20,0.00,18.62,25.42,28.52,9.73,39.32,1008.00,2045.91,3431.89,3288.99,3543.97,499.91,499.84,40.61,0000 0000 0000 0000 000000
2014-09-27 12:21:16,-0.00,0.20,0.00,18.55,25.40,28.48,9.74,39.40,1007.99,2045.96,3431.95,3288.99,3543.97,499.65,499.87,40.65,0000 0000 0000 0000 000000
2014-09-27 12:26:18,0.00,0.20,0.00,18.56,25.38,28.45,9.77,39.48,1007.93,2045.99,3431.98,3288.99,3543.97,500.08,500.01,40.69,0000 0000 0000 0000 000000
2014-09-27 12:31:19,0.00,0.20,0.00,18.44,25.37,28.38,9.78,39.47,1007.90,2045.99,3431.89,3288.99,3543.93,500.08,500.30,40.73,0000 0000 0000 0000 000000
2014-09-27 12:36:20,0.00,0.20,0.00,18.41,25.35,28.32,9.71,39.65,1007.85,2045.99,3431.85,3288.99,3543.83,500.08,500.29,40.78,0000 0000 0000 0000 000000
2014-09-27 12:41:21,-0.00,0.20,0.00,18.42,25.33,28.29,9.68,39.52,1007.84,2045.99,3431.82,3288.99,3543.89,499.66,499.79,40.82,0000 0000 0000 0000 000000
2014-09-27 12:46:22,-0.00,0.20,0.00,18.36,25.31,28.24,9.78,39.55,1007.83,2045.99,3431.93,3288.99,3543.91,499.85,500.18,40.86,0000 0000 0000 0000 000000
2014-09-27 12:51:23,0.00,0.20,0.00,18.32,25.30,28.18,9.75,39.50,1007.83,2045.99,3431.72,3289.00,3543.75,499.86,500.39,40.90,0000 0000 0000 0000 000000
2014-09-27 12:56:24,-0.00,0.20,0.00,18.43,25.27,28.22,9.75,39.42,1007.83,2046.01,3431.76,3289.01,3543.89,499.93,500.07,40.94,0000 0000 0000 0000 000000
2014-09-27 13:01:26,-0.00,0.20,0.00,18.50,25.26,28.22,9.74,39.36,1007.83,2046.01,3431.92,3289.04,3543.97,500.02,500.05,40.98,0000 0000 0000 0000 000000